Weather History for Pueblo, CO

Change the Weather History Date:

Sunday, June 10, 2012

  Actual Average Record
Temperature  
Mean Temperature 69 °F 68 °F  
Max Temperature 81 °F 85 °F 103 °F (2013)
Min Temperature 56 °F 51 °F 36 °F (1998)
Degree Days  
Heating Degree Days 0 1  
Month to date heating degree days 0 16  
Since 1 June heating degree days 0 16  
Since 1 July heating degree days 5029 5629  
Cooling Degree Days 4 4  
Month to date cooling degree days 88 34  
Year to date cooling degree days 141 68  
Since 1 June cooling degree days 88 34  
Growing Degree Days 20 (Base 50)    
Moisture  
Dew Point 34 °F    
Average Humidity 32    
Maximum Humidity 53    
Minimum Humidity 10    
Precipitation  
Precipitation T in 0.04 in 0.78 in (1895)
Month to date precipitation T 0.47  
Year to date precipitation 2.46 4.96  
Snow  
Snow 0.00 in 0.00 in 0.00 in (2002)
Month to date snowfall 0.0 0.0  
Since 1 June snowfall 0.0 0.0  
Since 1 July snowfall 32.1 31.8  
Snow Depth 0.00 in    
Sea Level Pressure  
Sea Level Pressure 29.69 in    
Wind  
Wind Speed 13 mph (East)    
Max Wind Speed 44 mph    
Max Gust Speed 49 mph    
Visibility 10 miles    
Events Rain , Thunderstorm    
T = Trace of Precipitation, MM = Missing Value Source: NWS Daily Summary

Daily Weather History Graph

Daily Weather History Graph

Search for Another Location

Airport:

Trip Planner

Search our weather history database for the weather conditions in past years. The results will help you decide how hot, cold, wet, or windy it might be!

Date:

Astronomy

Jun. 10, 2012 Rise Set
Actual Time 5:34 AM MDT 8:21 PM MDT
Civil Twilight 5:02 AM MDT 8:52 PM MDT
Nautical Twilight 4:23 AM MDT 9:32 PM MDT
Astronomical Twilight 3:38 AM MDT 10:17 PM MDT
Moon 12:19 AM MDT (6/10) 12:20 PM MDT (6/10)
Length of Visible Light 15h 50m
Length of Day
14h 47m
Waning Gibbous, 57% of the Moon is Illuminated
Jun 10
Waning Gibbous
Jun 11
Last Quarter
Jun 19
New
Jun 26
First Quarter
Jul 3
Full

Hourly Weather History & Observations

Time (MDT) Temp. Dew Point Humidity Pressure Visibility Wind Dir Wind Speed Gust Speed Precip Events Conditions
12:53 AM 79.0 °F 17.1 °F 10% 29.34 in 10.0 mi West 17.3 mph - N/A   Clear
1:53 AM 78.1 °F 17.1 °F 10% 29.33 in 10.0 mi West 13.8 mph - N/A   Clear
2:53 AM 72.0 °F 21.9 °F 15% 29.36 in 10.0 mi SSW 9.2 mph - N/A   Clear
3:53 AM 66.9 °F 19.9 °F 17% 29.38 in 10.0 mi Calm Calm - N/A   Clear
4:53 AM 63.0 °F 19.9 °F 19% 29.43 in 10.0 mi ENE 10.4 mph - N/A   Clear
5:15 AM 64.4 °F 39.2 °F 40% 29.70 in 10.0 mi NNE 27.6 mph 36.8 mph N/A   Clear
5:53 AM 61.0 °F 41.0 °F 48% 29.52 in 10.0 mi North 35.7 mph 41.4 mph N/A   Clear
6:53 AM 60.1 °F 37.9 °F 44% 29.58 in 10.0 mi NNE 35.7 mph 46.0 mph N/A   Clear
7:53 AM 62.1 °F 37.0 °F 39% 29.66 in 10.0 mi North 28.8 mph 40.3 mph N/A   Clear
8:53 AM 66.0 °F 37.0 °F 34% 29.71 in 10.0 mi NE 13.8 mph 23.0 mph N/A   Clear
9:53 AM 68.0 °F 35.1 °F 30% 29.72 in 10.0 mi NE 11.5 mph 19.6 mph N/A   Clear
10:53 AM 71.1 °F 34.0 °F 26% 29.71 in 10.0 mi East 8.1 mph - N/A   Clear
11:53 AM 73.0 °F 33.1 °F 23% 29.70 in 10.0 mi East 5.8 mph - N/A   Clear
12:53 PM 75.0 °F 32.0 °F 21% 29.68 in 9.0 mi Variable 4.6 mph - N/A   Clear
1:53 PM 78.1 °F 32.0 °F 19% 29.66 in 7.0 mi SSE 16.1 mph 21.9 mph N/A   Clear
2:53 PM 79.0 °F 32.0 °F 18% 29.66 in 7.0 mi ESE 8.1 mph 23.0 mph N/A   Clear
3:53 PM 80.1 °F 32.0 °F 17% 29.66 in 8.0 mi East 13.8 mph 20.7 mph N/A   Clear
4:53 PM 79.0 °F 32.0 °F 18% 29.68 in 8.0 mi East 11.5 mph - N/A   Clear
5:53 PM 78.1 °F 33.1 °F 19% 29.70 in 9.0 mi ESE 6.9 mph - N/A   Clear
6:13 PM 78.8 °F 33.8 °F 20% 29.86 in 9.0 mi ESE 15.0 mph - N/A Thunderstorm Partly Cloudy
6:53 PM 78.1 °F 34.0 °F 20% 29.70 in 9.0 mi ESE 15.0 mph - N/A Thunderstorm Partly Cloudy
7:17 PM 77.0 °F 33.8 °F 21% 29.89 in 10.0 mi ESE 13.8 mph - N/A Thunderstorm Clear
7:43 PM 75.2 °F 33.8 °F 22% 29.90 in 10.0 mi East 17.3 mph - N/A   Partly Cloudy
7:53 PM 75.9 °F 33.1 °F 21% 29.73 in 10.0 mi East 15.0 mph - N/A   Partly Cloudy
8:20 PM 75.2 °F 33.8 °F 22% 29.90 in 10.0 mi ESE 20.7 mph - N/A Thunderstorm Partly Cloudy
8:35 PM 75.2 °F 33.8 °F 22% 29.91 in 10.0 mi North - - N/A Thunderstorm Partly Cloudy
8:53 PM 73.9 °F 33.1 °F 22% 29.75 in 10.0 mi East 13.8 mph - N/A Thunderstorm Mostly Cloudy
9:37 PM 71.6 °F 41.0 °F 33% 29.98 in 10.0 mi ESE 15.0 mph - 0.00 in Rain Light Rain
9:53 PM 66.9 °F 45.0 °F 45% 29.82 in 10.0 mi East 15.0 mph - 0.00 in Rain Light Rain
10:53 PM 63.0 °F 43.0 °F 48% 29.86 in 10.0 mi NE 9.2 mph - 0.00 in   Partly Cloudy
11:53 PM 59.0 °F 43.0 °F 55% 29.88 in 10.0 mi NNE 4.6 mph - N/A   Clear